This demonstration page uses our WeatherBlox Daily Observations layout. Learn more.

Left ArrowRight Arrow

44.8408, -93.29828

Hourly Observations for October 1, 2020

Temp ( °F °C ) Dew Point ( °F °C ) Humidity (%) Winds ( mph kmh ) Pressure ( in mb ) Visibility ( mi km ) Precip ( " mm )
12:53 am 00:53 Partly Cloudy 47 8.3 40 4.4 77 77 NW 12 19 29.95 1014 10 16 0.00 0.00
1:53 am 01:53 Cloudy 47 8.3 40 4.4 77 77 NW 12 19 29.96 1015 10 16 0.00 0.00
2:53 am 02:53 Cloudy 48 8.9 41 5 77 77 NW 13 20 29.97 1015 10 16 0.00 0.00
3:53 am 03:53 Cloudy 48 8.9 41 5 77 77 NW 16 26 29.98 1015 10 16 0.00 0.00
4:53 am 04:53 Cloudy with Light Rain 47 8.3 42 5.6 83 83 NW 14 22 30.01 1016 7 11 0.00 0.00
5:53 am 05:53 Cloudy with Light Rain 47 8.3 43 6.1 86 86 NW 15 24 30.03 1017 10 16 0.01 0.25
6:34 am 06:34 Cloudy 47 8.3 43 6.1 86 86 NNW 13 20 30.07 1018 10 16 0.00 0.00
6:53 am 06:53 Mostly Cloudy with Light Rain 47 8.3 44 6.7 90 90 NNW 14 22 30.06 1018 10 16 0.00 0.00
7:38 am 07:38 Cloudy 47 8.3 43 6.1 86 86 NNW 13 20 30.10 1019 10 16 0.00 0.00
7:53 am 07:53 Cloudy 48 8.9 43 6.1 83 83 NNW 16 26 30.09 1019 9 14 0.00 0.00
8:38 am 08:38 Cloudy 48 8.9 43 6.1 83 83 NW 13 20 30.11 1020 10 16 0.00 0.00
8:53 am 08:53 Cloudy 49 9.4 43 6.1 80 80 NNW 14 22 30.12 1020 10 16 0.00 0.00
9:53 am 09:53 Cloudy 50 10 42 5.6 74 74 NNW 16 26 30.14 1021 10 16 0.00 0.00
10:07 am 10:07 Cloudy 50 10 41 5 71 71 NNW 17 28 30.14 1021 10 16 0.00 0.00
10:21 am 10:21 Cloudy 51 10.6 41 5 69 69 NNW 14 22 30.15 1021 10 16 0.00 0.00
10:41 am 10:41 Cloudy with Light Rain 49 9.4 43 6.1 80 80 N 14 22 30.16 1021 8 13 0.00 0.00
10:50 am 10:50 Cloudy with Light Rain 48 9 45 7 87 87 N 16 26 30.16 1021 9 14 0.00 0.00
10:53 am 10:53 Cloudy with Rain 48 8.9 45 7.2 89 89 NNW 13 20 30.17 1022 9 14 0.00 0.00
11:53 am 11:53 Mostly Cloudy 52 11.1 42 5.6 69 69 NNW 15 24 30.18 1022 10 16 0.01 0.25
12:53 pm 12:53 Mostly Cloudy 54 12.2 38 3.3 55 55 N 16 26 30.19 1022 10 16 0.00 0.00
1:53 pm 13:53 Mostly Cloudy 52 11.1 35 1.7 53 53 NNW 15 24 30.19 1023 10 16 0.00 0.00
2:53 pm 14:53 Mostly Cloudy 54 12.2 34 1.1 47 47 NW 13 20 30.19 1023 10 16 0.00 0.00
3:53 pm 15:53 Mostly Cloudy 53 11.7 34 1.1 48 48 NNW 15 24 30.20 1023 10 16 0.00 0.00
4:53 pm 16:53 Mostly Cloudy 53 11.7 31 -0.6 43 43 NW 16 26 30.20 1023 10 16 0.00 0.00
5:53 pm 17:53 Partly Cloudy 52 11.1 31 -0.6 45 45 NNW 14 22 30.21 1023 10 16 0.00 0.00
6:53 pm 18:53 Partly Cloudy 49 9.4 33 0.6 55 55 NW 10 17 30.21 1023 10 16 0.00 0.00
7:53 pm 19:53 Partly Cloudy 46 7.8 34 1.1 63 63 NW 6 9 30.23 1024 10 16 0.00 0.00
8:53 pm 20:53 Mostly Clear 45 7.2 34 1.1 66 66 WNW 5 7 30.24 1024 10 16 0.00 0.00
9:53 pm 21:53 Mostly Clear 44 6.7 34 1.1 68 68 NW 5 7 30.24 1024 10 16 0.00 0.00
10:53 pm 22:53 Mostly Cloudy 44 6.7 32 0 63 63 N 7 11 30.24 1024 10 16 0.00 0.00
11:53 pm 23:53 Cloudy 44 6.7 32 0 63 63 NNE 9 15 30.25 1024 10 16 0.00 0.00

Powered by AerisWeather